Regional Weather Roundup
Issued by NWS Charleston, SC

Current Version | Previous Version | Graphics & Text | Print | Product List | Glossary On
Versions: 1 2 3 4 5 6 7 8 9 10 11 12 13 14 15 16 17 18 19 20 21 22 23 24 25 26 27 28 29 30 31 32 33 34 35 36 37 38 39 40 41 42 43 44 45 46 47 48 49 50
000 ASUS42 KCHS 201625 RWRCHS REGIONAL WEATHER ROUNDUP NATIONAL WEATHER SERVICE CHARLESTON SC 1200 PM EDT MON OCT 20 2014 NOTE: "FAIR" INDICATES FEW OR NO CLOUDS BELOW 12,000 FEET WITH NO SIGNIFICANT WEATHER AND/OR OBSTRUCTIONS TO VISIBILITY. NOT ALL STATIONS ARE QUALITY CONTROLLED BY THE NATIONAL WEATHER SERVICE. USE DATA WITH CAUTION...ESPECIALLY DEWPOINT OBSERVATIONS. SCZ027-030-031-034>040-042>050-201700- ...SOUTH CAROLINA... CITY SKY/WX TMP DP RH WIND PRES REMARKS N CHARLESTON MOSUNNY 75 55 49 SE8 30.12F WATERFRONT PRK N/A 75 N/A N/A E6 N/A FORT JOHNSON NOT AVBL JOHNS ISLAND SUNNY 73 61 64 E7 30.12F PINOPOLIS N/A 70 55 60 NE3 30.05F MONCKS CORNER FAIR 73 59 60 S5 30.12F SUMMERVILLE FAIR 72 55 56 S6 30.13F BEAUFORT MCAS MOSUNNY 73 56 54 E3 30.11F BEAUFORT ARPT FAIR 73 61 64 E7 30.10F HILTON HEAD IS SUNNY 72 59 64 NE9 30.12F GEORGETOWN NOT AVBL WALTERBORO MOSUNNY 73 50 43 E5 30.12F ORANGEBURG MOSUNNY 69 52 54 SE6 30.13F BARNWELL FAIR 70 54 56 S3 30.12F AIKEN FAIR 70 50 49 S5 30.14F MANNING FAIR 72 54 53 SW6 30.12F KINGSTREE NOT AVBL COLUMBIA MOSUNNY 70 48 45 VRB5 30.12F SUMTER SUNNY 69 51 52 S7 30.11F FLORENCE SUNNY 69 50 50 S7 30.13F MYRTLE BEACH SUNNY 72 52 49 E9 30.13F N MYRTLE BEACH SUNNY 70 52 52 VRB6 30.14F $$ GAZ063-065-086>088-099>101-113>116-118-119-134-136>141-150-201700- ...GEORGIA... CITY SKY/WX TMP DP RH WIND PRES REMARKS SAVANNAH ARPT MOSUNNY 77 59 53 SE5 30.11F HUNTER AAF PTSUNNY 74 61 63 SE8 30.09F FORT STEWART SUNNY 74 60 62 SE2 30.09F STATESBORO NOT AVBL SYLVANIA SUNNY 76 60 57 E5 30.12F CLAXTON FAIR 73 59 60 E3 30.10F THOMSON SUNNY 71 55 57 CALM 30.16F AUGUSTA-BUSH SUNNY 69 49 48 S7 30.12F AUGUSTA-DANIEL SUNNY 68 45 43 VRB3 30.13F SWAINSBORO FAIR 73 59 60 MISG 30.11F VIDALIA SUNNY 72 59 64 SE5 30.10F ALMA MOSUNNY 72 59 63 SE5 30.10F WAYCROSS MOSUNNY 79 66 64 E6 30.08F JESUP FAIR 79 66 65 SE9 30.09F BRUNSWICK PTSUNNY 77 61 57 SE6 30.09F SAINT SIMONS MOSUNNY 75 62 64 E9 30.09F $$ SCZ027-028-034-036>038-045-046-048>050-GAZ119-141-201700- ...LAKE AND SUPPLEMENTAL COASTAL OBSERVATIONS... STATION/POSITION TIME TEMP WIND PRES WAVE SWELL AIR SEA DIR/SP/G HT/PER HT/PER/DIR (UTC) (F) (DEG/KT/KT) (MB) (FT/S) (FT/S/D) UPR LAKE MARION NOT AVBL WINYAH BAY 1600 68 60/ 10 1020.0S LAKE MURRAY 1500 67 180/ 2/ 3 1020.0F ACE BASIN NERRS 1600 74 110/ 2 1020.0S FORT PULASKI 1600 72 70/ 10/ 12 1019.7F SAPELO ISLAND NOT AVBL $$ ANZ835-935-AMZ111-154-330-350-352-354-374-450-454-472-201700- ...C-MAN AND BUOY OBSERVATIONS... STATION/POSITION TIME TEMP WIND PRES WAVE SWELL AIR SEA DIR/SP/G HT/PER HT/PER/DIR (UTC) (F) (DEG/KT/KT) (MB) (FT/S) (FT/S/D) FOLLY BEACH CMAN 1600 71 70/ 8/ 9 1020.4F BUOY 41004 1600 72 80 80/ 8/ 10 1019.7F 2/ 9 2/ 9 BUOY 41008 1600 74 76 90/ 10/ 12 1019.1F 2/11 2/ 80/11 5E ST. MARYS GA 1600 77 N/A 2/12 2/ 90/12 FRYING PAN BUOY 1600 68 75 50/ 6/ 10 1021.4F 2/10 2/100/10 BUOY 41025 1500 65 320/ 6/ 8 1021.7F 4/12 3/ 60/12 CAPE LOOKOUT NC 1600 66 50/ 5/ 6 1020.9F BUOY 41002 1511 71 80 80/ 8/ 12 1021.0F 4/ 9 3/ 30/ 9 BUOY 41010 1600 78 80 90/ 14/ 16 1018.1F 4/ 5 2/ 30/ 8 BUOY 41012 NOT AVBL ST AUGUSTINE FL 1600 77 110/ 8/ 8 1019.0F CAPERS NEARSHORE 1500 71 60/ 6/ 8 N/A FRIPP NEARSHORE NOT AVBL $$

USA.gov is the U.S. government's official web portal to all federal, state and local government web resources and services.